Showing default

GOES 17, 43226

Orbit data source: Space-Track

GOES 17, 43226 is a payload satellite owned by NOAA (US) in GEO that was launched on Thu, 01 Mar 2018 UTC via an ATLAS V 541 launch vehicle from the Air Force Eastern Test Range (AFETR). Payload-class satellites include a variety of spacecraft equipped with specific instruments for various scientific and technological missions. These include communications satellites like Starlink; space stations such as the ISS; scientific satellites like the Hubble; Earth observation satellites from companies like Planet Labs, Umbra, and HawkEye 360; GPS; miniature CubeSats for education and research; and military/defense satellites.

Loading next visibility...
Identifier
43226, 2018-022A
Orbit
GEO
Country
Flag of USUS
Related business
Manufacturer
LMCSS
Mission
On reserve Civil Weather
Bus & Motor
A2100, LEROS-1C
Mass
5,192 kg wet, 2,857 kg dry
Launch date (UTC)
2018-03-01 (8 years ago)
Launch vehicle
ATLAS V 541
Launch site
Air Force Eastern Test Range (AFETR)
Object type
Payload
Rocket body
Debris
Shape & HBR
Box + 1 Pan + 1 Ant, 6.0 m
Radar Cross Section
38.538 m², Large (>1 m²)

Expand to show TLE details & history
Last TLE update: 2 days ago

TLE from 2 days ago
0 GOES 17
1 43226U 18022A   25258.63804953 -.00000199  00000-0  00000-0 0  9990
2 43226   0.2268  92.7093 0002699 151.0664 251.2680  1.00271075 27675
Epoch: 2025-09-15T15:18Z
TLE epoch observation values (Epoch: 2025-09-15T15:18:47.479Z)
Latitude
0.14559°
Longitude
-89.52509°
Altitude
35,789.889 km
Speed
3.074 km/s
True Right ascension
09h 00m 03s
True Declination
0° 08' 44"
Sunlit
Object was in daylight at epoch
Visualization orbit readout
Latitude
Unknown
Longitude
Unknown
Altitude
Unknown
Speed
Unknown
Apparent Right ascension
Unknown
Apparent Declination
Unknown
Sunlit
N/A
Visualization observer readout
Local Sidereal Time
20:37:18
Azimuth
Unknown
Elevation
Unknown
Doppler factor
Unknown
Orbital elements
Apogee altitude
35,799.245 km
Perigee altitude
35,776.484 km
Semi-major axis
42,166.001 km
Eccentricity
0.00027
Inclination
0.2268°
RAAN
92.7093°
Arg. of periapsis
151.0664°
True anomaly
251.23871°
Mean anomaly
251.268°
Eccentric anomaly
251.25336°
Mean motion
0.25067 °/min
Orbital period
1,436.16 mins
BSTAR
0
Loading maneuver chart data...
Computing Atmospheric mass density...
Loading historical data...
Loading historical data...
Loading historical data...
Loading historical data...
Loading historical data...
Loading historical data...
Loading historical data...
Other satellites on launch #22 in the year 2018 (2018-03-01 UTC)

Documentation

Showing up to 5 results
|